Weather History for Fort Lauderdale, FL

Change the Weather History Date:

Friday, July 26, 2013

  Actual Average Record
Temperature  
Mean Temperature 85 °F -  
Max Temperature 93 °F 91 °F 98 °F (1983)
Min Temperature 77 °F 74 °F 64 °F (1977)
Cooling Degree Days 20    
Growing Degree Days 35 (Base 50)    
Moisture  
Dew Point 74 °F    
Average Humidity 76    
Maximum Humidity 90    
Minimum Humidity 47    
Precipitation  
Precipitation 0.25 in - - ()
Sea Level Pressure  
Sea Level Pressure 30.01 in    
Wind  
Wind Speed 7 mph (WSW)    
Max Wind Speed 18 mph    
Max Gust Speed 26 mph    
Visibility 9 miles    
Events Rain , Thunderstorm    
Averages and records for this station are not official NWS values.
T = Trace of Precipitation, MM = Missing Value Source: NWS Daily Summary

Daily Weather History Graph

Daily Weather History Graph

Search for Another Location

Airport:

Trip Planner

Search our weather history database for the weather conditions in past years. The results will help you decide how hot, cold, wet, or windy it might be!

Date:

Astronomy

Jul. 26, 2013 Rise Set
Actual Time 6:43 AM EDT 8:10 PM EDT
Civil Twilight 6:18 AM EDT 8:35 PM EDT
Nautical Twilight 5:48 AM EDT 9:05 PM EDT
Astronomical Twilight 5:17 AM EDT 9:36 PM EDT
Moon 10:59 PM EDT (7/26) 10:45 AM EDT (7/26)
Length of Visible Light 14h 17m
Length of Day
13h 27m
Waning Gibbous, 80% of the Moon is Illuminated
Jul 26
Waning Gibbous
Jul 29
Last Quarter
Aug 6
New
Aug 14
First Quarter
Aug 20
Full

Hourly Weather History & Observations

Time (EDT) Temp. Heat Index Dew Point Humidity Pressure Visibility Wind Dir Wind Speed Gust Speed Precip Events Conditions
12:53 AM 82.0 °F 87.9 °F 73.9 °F 76% 30.03 in 10.0 mi SW 6.9 mph - N/A   Clear
1:53 AM 80.1 °F 85.1 °F 75.0 °F 85% 30.03 in 10.0 mi WSW 5.8 mph - N/A   Clear
2:53 AM 80.1 °F 84.5 °F 73.9 °F 81% 30.01 in 10.0 mi WSW 6.9 mph - N/A   Clear
3:53 AM 80.1 °F 84.5 °F 73.9 °F 81% 30.00 in 10.0 mi SW 6.9 mph - N/A   Partly Cloudy
4:53 AM 79.0 °F - 73.9 °F 84% 30.00 in 10.0 mi WSW 4.6 mph - N/A   Clear
5:53 AM 79.0 °F - 73.9 °F 84% 30.01 in 10.0 mi SW 4.6 mph - N/A   Clear
6:53 AM 77.0 °F - 73.9 °F 90% 30.02 in 10.0 mi SW 4.6 mph - N/A   Scattered Clouds
7:53 AM 80.1 °F 85.1 °F 75.0 °F 85% 30.03 in 10.0 mi WSW 4.6 mph - N/A   Scattered Clouds
8:53 AM 82.0 °F 88.6 °F 75.0 °F 79% 30.05 in 10.0 mi WSW 6.9 mph - N/A   Clear
9:53 AM 86.0 °F 93.8 °F 73.9 °F 67% 30.04 in 10.0 mi West 9.2 mph - N/A   Mostly Cloudy
10:53 AM 84.9 °F 92.1 °F 73.9 °F 69% 30.04 in 10.0 mi West 9.2 mph - N/A   Scattered Clouds
11:53 AM 87.1 °F 94.5 °F 73.0 °F 63% 30.03 in 10.0 mi West 10.4 mph - N/A   Scattered Clouds
12:53 PM 91.0 °F 98.2 °F 72.0 °F 53% 30.02 in 10.0 mi WSW 13.8 mph - N/A   Scattered Clouds
1:53 PM 91.0 °F 98.2 °F 72.0 °F 53% 30.01 in 10.0 mi West 10.4 mph 20.7 mph N/A   Scattered Clouds
2:53 PM 91.9 °F 100.7 °F 73.0 °F 54% 30.00 in 10.0 mi SW 10.4 mph - N/A   Scattered Clouds
3:53 PM 93.9 °F 100.8 °F 71.1 °F 47% 29.98 in 10.0 mi SW 9.2 mph 17.3 mph N/A   Scattered Clouds
4:53 PM 93.0 °F 100.1 °F 71.1 °F 49% 29.96 in 10.0 mi West 10.4 mph - N/A   Partly Cloudy
5:53 PM 91.9 °F 99.5 °F 72.0 °F 52% 29.95 in 10.0 mi WSW 10.4 mph - N/A   Scattered Clouds
6:28 PM 80.6 °F 86.2 °F 75.2 °F 84% 29.96 in 1.5 mi North 18.4 mph 26.5 mph N/A Rain , Thunderstorm Thunderstorms and Rain
6:50 PM 78.8 °F - 73.4 °F 83% 29.98 in 5.0 mi Calm Calm - N/A Rain , Thunderstorm Thunderstorms and Rain
6:53 PM 78.1 °F - 72.0 °F 81% 29.99 in 5.0 mi Variable 3.5 mph - N/A Rain , Thunderstorm Thunderstorms and Rain
7:12 PM 78.8 °F - 73.4 °F 83% 29.99 in 1.0 mi WNW 6.9 mph - N/A Rain , Thunderstorm Thunderstorms and Rain
7:21 PM 78.8 °F - 73.4 °F 83% 29.98 in 5.0 mi WSW 6.9 mph - N/A Rain , Thunderstorm Thunderstorms and Rain
7:53 PM 77.0 °F - 73.0 °F 88% 30.00 in 10.0 mi SW 6.9 mph - 0.24 in Rain , Thunderstorm Thunderstorms and Rain
8:53 PM 77.0 °F - 73.9 °F 90% 29.99 in 10.0 mi SW 5.8 mph - 0.01 in Rain , Thunderstorm Light Thunderstorms and Rain
9:53 PM 79.0 °F - 75.0 °F 88% 30.01 in 10.0 mi SW 5.8 mph - 0.00 in Thunderstorm Thunderstorm
10:20 PM 78.8 °F - 75.2 °F 89% 30.01 in 10.0 mi WSW 4.6 mph - N/A   Partly Cloudy
10:53 PM 79.0 °F - 75.9 °F 90% 30.02 in 10.0 mi South 3.5 mph - N/A   Clear
11:53 PM 79.0 °F - 75.9 °F 90% 30.02 in 10.0 mi SSW 3.5 mph - N/A   Mostly Cloudy